Showing default

COSMOS 2595 (GLONASS), 65590

Orbit data source: Space-Track

COSMOS 2595 (GLONASS), 65590 is a Commonwealth of Independent States-origin payload satellite in MEO that was launched on Sat, 13 Sep 2025 UTC via a SOYUZ-2-1B launch vehicle from the Plesetsk Missile And Space Complex (PKMTR). Payload-class satellites include a variety of spacecraft equipped with specific instruments for various scientific and technological missions. These include communications satellites like Starlink; space stations such as the ISS; scientific satellites like the Hubble; Earth observation satellites from companies like Planet Labs, Umbra, and HawkEye 360; GPS; miniature CubeSats for education and research; and military/defense satellites.

Loading next visibility...
Identifier
65590, 2025-206B
Orbit
MEO
Country
Flag of CISCIS
Related business
None
Manufacturer
Resehetnev ISS
Mission
Operational spacecraft
Bus & Motor
EKSPRESS-1000, AOCS
Mass
974 kg wet, ~800 kg dry
Launch date (UTC)
2025-09-13 (5 days ago)
Launch vehicle
SOYUZ-2-1B
Launch site
Plesetsk Missile And Space Complex (PKMTR)
Object type
Payload
Rocket body
Debris
Shape & HBR
Unknown
Radar Cross Section
RCS unknown

Expand to show TLE details & history
Last TLE update: 2 days ago

TLE from 2 days ago
0 COSMOS 2595 (GLONASS)
1 65590U 25206B   25258.67527787 -.00000060  00000-0  00000-0 0  9998
2 65590  64.7952 324.5337 0011291 289.8774 200.0384  2.13158141    65
Epoch: 2025-09-15T16:12Z
TLE epoch observation values (Epoch: 2025-09-15T16:12:24.007Z)
Latitude
44.04304°
Longitude
-120.45081°
Altitude
19,157.699 km
Speed
3.95 km/s
True Right ascension
07h 50m 06s
True Declination
43° 59' 42"
Sunlit
Object was in daylight at epoch
Visualization orbit readout
Latitude
Unknown
Longitude
Unknown
Altitude
Unknown
Speed
Unknown
Apparent Right ascension
Unknown
Apparent Declination
Unknown
Sunlit
N/A
Visualization observer readout
Local Sidereal Time
12:36:30
Azimuth
Unknown
Elevation
Unknown
Doppler factor
Unknown
Orbital elements
Apogee altitude
19,153.826 km
Perigee altitude
19,096.235 km
Semi-major axis
25,503.167 km
Eccentricity
0.00113
Inclination
64.7952°
RAAN
324.5337°
Arg. of periapsis
289.8774°
True anomaly
199.99412°
Mean anomaly
200.0384°
Eccentric anomaly
200.01626°
Mean motion
0.53291 °/min
Orbital period
675.54 mins
BSTAR
0
Loading maneuver chart data...
Computing Atmospheric mass density...
Loading historical data...
Loading historical data...
Loading historical data...
Loading historical data...
Loading historical data...
Loading historical data...
Loading historical data...
Other satellites on launch #206 in the year 2025 (2025-09-13 UTC)

Documentation

Showing up to 5 results
|